Weather History for Bloomington, IL

Change the Weather History Date:

Tuesday, February 7, 2012

  Actual Average Record
Temperature  
Mean Temperature 26 °F -  
Max Temperature 32 °F 25 °F 63 °F (2009)
Min Temperature 21 °F -4 °F -10 °F (2014)
Degree Days  
Heating Degree Days 38    
Moisture  
Dew Point 27 °F    
Average Humidity 100    
Maximum Humidity 100    
Minimum Humidity 92    
Precipitation  
Precipitation 0.00 in - - ()
Sea Level Pressure  
Sea Level Pressure 30.29 in    
Wind  
Wind Speed 6 mph (NNE)    
Max Wind Speed 15 mph    
Max Gust Speed -    
Visibility 3 miles    
Events Fog , Rain , Snow    
Averages and records for this station are not official NWS values.
T = Trace of Precipitation, MM = Missing Value Source: NWS Daily Summary

Daily Weather History Graph

Daily Weather History Graph

Search for Another Location

Airport:

Trip Planner

Search our weather history database for the weather conditions in past years. The results will help you decide how hot, cold, wet, or windy it might be!

Date:

Astronomy

Feb. 07, 2012 Rise Set
Actual Time 6:59 AM CST 5:20 PM CST
Civil Twilight 6:30 AM CST 5:49 PM CST
Nautical Twilight 5:58 AM CST 6:21 PM CST
Astronomical Twilight 5:26 AM CST 6:53 PM CST
Moon 5:31 PM CST (2/7) 6:28 AM CST (2/7)
Length of Visible Light 11h 18m
Length of Day
10h 21m
Full, 100% of the Moon is Illuminated
Feb 7
Full
Feb 7
Full
Feb 14
Last Quarter
Feb 21
New
Feb 29
First Quarter

Hourly Weather History & Observations

Time (CST) Temp. Windchill Dew Point Humidity Pressure Visibility Wind Dir Wind Speed Gust Speed Precip Events Conditions
12:56 AM 25.2 °F 19.5 °F 25.2 °F 100% 30.25 in 2.5 mi NW 4.6 mph - N/A   Clear
1:32 AM 26.6 °F 22.6 °F 26.6 °F 100% 30.19 in 1.8 mi NNW 3.5 mph - N/A   Clear
1:40 AM 24.8 °F 20.5 °F 24.8 °F 100% 30.19 in 3.0 mi NNW 3.5 mph - N/A   Clear
1:56 AM 24.1 °F 18.2 °F 24.1 °F 100% 30.25 in 4.0 mi NNE 4.6 mph - N/A   Clear
2:02 AM 24.8 °F 19.1 °F 24.8 °F 100% 30.19 in 2.5 mi NE 4.6 mph - N/A   Partly Cloudy
2:24 AM 23.0 °F - 23.0 °F 100% 30.20 in 1.2 mi Calm Calm - N/A   Mostly Cloudy
2:31 AM 21.2 °F - 21.2 °F 100% 30.20 in 1.0 mi Calm Calm - N/A   Mist
2:35 AM 23.0 °F - 23.0 °F 100% 30.20 in 1.8 mi Calm Calm - N/A   Mostly Cloudy
2:42 AM 21.2 °F - 21.2 °F 100% 30.20 in 2.0 mi Calm Calm - N/A   Partly Cloudy
2:56 AM 23.0 °F - 23.0 °F 100% 30.27 in 2.5 mi Calm Calm - N/A   Scattered Clouds
2:58 AM 21.2 °F - 21.2 °F 100% 30.21 in 3.0 mi Calm Calm - N/A   Mostly Cloudy
3:06 AM 23.0 °F - 23.0 °F 100% 30.21 in 1.8 mi Calm Calm - N/A   Mostly Cloudy
3:15 AM 23.0 °F - 23.0 °F 100% 30.20 in 1.0 mi Calm Calm - N/A   Overcast
3:17 AM 23.0 °F - 23.0 °F 100% 30.20 in 0.5 mi Calm Calm - N/A Fog Light Freezing Fog
3:24 AM 23.0 °F - 23.0 °F 100% 30.20 in 0.2 mi Calm Calm - N/A Fog Light Freezing Fog
3:56 AM 22.1 °F 17.4 °F 22.1 °F 100% 30.27 in 0.2 mi North 3.5 mph - N/A Fog Light Freezing Fog
4:03 AM 23.0 °F 17.0 °F 23.0 °F 100% 30.20 in 0.2 mi NNE 4.6 mph - N/A Fog Light Freezing Fog
4:09 AM 24.8 °F 19.1 °F 24.8 °F 100% 30.20 in 0.8 mi NNE 4.6 mph - N/A   Mostly Cloudy
4:12 AM 24.8 °F 19.1 °F 24.8 °F 100% 30.21 in 1.8 mi NNE 4.6 mph - N/A   Overcast
4:18 AM 24.8 °F 20.5 °F 24.8 °F 100% 30.21 in 3.0 mi North 3.5 mph - N/A   Overcast
4:49 AM 26.6 °F 21.2 °F 26.6 °F 100% 30.22 in 2.0 mi North 4.6 mph - N/A   Overcast
4:56 AM 26.1 °F 19.4 °F 26.1 °F 100% 30.27 in 1.8 mi North 5.8 mph - N/A   Overcast
5:13 AM 26.6 °F 20.0 °F 26.6 °F 100% 30.22 in 1.0 mi NNE 5.8 mph - N/A   Overcast
5:22 AM 26.6 °F 17.5 °F 26.6 °F 100% 30.20 in 0.5 mi NE 9.2 mph - N/A Fog Light Freezing Fog
5:32 AM 26.6 °F 17.5 °F 26.6 °F 100% 30.21 in 1.0 mi NE 9.2 mph - N/A   Overcast
5:35 AM 26.6 °F 17.5 °F 26.6 °F 100% 30.21 in 1.5 mi NE 9.2 mph - N/A   Overcast
5:44 AM 26.6 °F 19.1 °F 26.6 °F 100% 30.21 in 3.0 mi NNE 6.9 mph - N/A   Overcast
5:56 AM 26.1 °F 16.8 °F 26.1 °F 100% 30.27 in 4.0 mi NE 9.2 mph - N/A   Overcast
6:18 AM 26.6 °F 18.2 °F 26.6 °F 100% 30.22 in 3.0 mi NE 8.1 mph - N/A   Overcast
6:56 AM 26.1 °F 17.6 °F 26.1 °F 100% 30.29 in 5.0 mi ENE 8.1 mph - N/A   Overcast
7:56 AM 27.1 °F 18.9 °F 27.1 °F 100% 30.32 in 3.0 mi ENE 8.1 mph - N/A   Overcast
8:18 AM 26.6 °F 18.2 °F 26.6 °F 100% 30.28 in 2.5 mi NE 8.1 mph - N/A   Overcast
8:56 AM 27.1 °F 18.2 °F 27.1 °F 100% 30.35 in 2.0 mi ENE 9.2 mph - N/A   Overcast
9:12 AM 26.6 °F 16.8 °F 26.6 °F 100% 30.28 in 1.8 mi ENE 10.4 mph - N/A   Overcast
9:56 AM 28.0 °F 18.6 °F 28.0 °F 100% 30.35 in 2.5 mi East 10.4 mph - N/A   Overcast
10:56 AM 29.1 °F 19.4 °F 29.1 °F 100% 30.35 in 2.0 mi East 11.5 mph - N/A   Overcast
11:56 AM 30.0 °F 24.1 °F 30.0 °F 100% 30.36 in 2.5 mi ENE 5.8 mph - N/A   Overcast
12:32 PM 30.2 °F 22.6 °F 30.2 °F 100% 30.29 in 5.0 mi ENE 8.1 mph - N/A   Overcast
12:56 PM 32.0 °F 24.8 °F 30.0 °F 92% 30.34 in 6.0 mi ENE 8.1 mph - N/A   Overcast
1:56 PM 32.9 °F 25.3 °F 31.1 °F 93% 30.35 in 5.0 mi ENE 9.2 mph - N/A   Overcast
2:40 PM 32.0 °F 22.5 °F 32.0 °F 100% 30.30 in 2.5 mi NNE 12.7 mph - N/A   Overcast
2:56 PM 32.0 °F 23.0 °F 32.0 °F 100% 30.37 in 2.5 mi NE 11.5 mph - N/A   Overcast
3:14 PM 30.2 °F 20.8 °F 30.2 °F 100% 30.32 in 1.2 mi NNE 11.5 mph - N/A   Overcast
3:56 PM 31.1 °F 21.9 °F 31.1 °F 100% 30.37 in 0.8 mi NNE 11.5 mph - N/A   Overcast
4:33 PM 30.2 °F 21.3 °F 30.2 °F 100% 30.31 in 0.8 mi NE 10.4 mph - 0.00 in Rain Light Freezing Rain
4:56 PM 31.1 °F 22.4 °F 31.1 °F 100% 30.37 in 0.8 mi NNE 10.4 mph - 0.00 in Rain Light Freezing Rain
5:13 PM 30.2 °F 20.2 °F 30.2 °F 100% 30.32 in 1.5 mi NE 12.7 mph - 0.00 in Rain Light Freezing Rain
5:26 PM 30.2 °F 20.2 °F 30.2 °F 100% 30.32 in 4.0 mi NE 12.7 mph - 0.00 in   Overcast
5:56 PM 31.1 °F 21.4 °F 31.1 °F 100% 30.38 in 10.0 mi NE 12.7 mph - 0.00 in   Overcast
6:56 PM 31.1 °F 21.9 °F 30.0 °F 96% 30.38 in 10.0 mi NE 11.5 mph - N/A   Overcast
7:56 PM 30.0 °F 19.1 °F 30.0 °F 100% 30.39 in 10.0 mi NNE 15.0 mph - N/A   Overcast
8:56 PM 30.0 °F 20.5 °F 29.1 °F 96% 30.40 in 10.0 mi NNE 11.5 mph - 0.00 in   Mostly Cloudy
9:07 PM 28.4 °F 18.0 °F 28.4 °F 100% 30.35 in 4.0 mi NNE 12.7 mph - 0.00 in Snow Light Snow
9:19 PM 28.4 °F 17.5 °F 28.4 °F 100% 30.35 in 4.0 mi NNE 13.8 mph - 0.00 in Snow Light Snow
9:31 PM 28.4 °F 18.5 °F 28.4 °F 100% 30.35 in 1.8 mi NNE 11.5 mph - 0.00 in Snow Light Snow
9:43 PM 28.4 °F 18.0 °F 28.4 °F 100% 30.36 in 1.5 mi NNE 12.7 mph - 0.00 in Snow Light Snow
9:56 PM 28.0 °F 16.5 °F 28.0 °F 100% 30.42 in 2.0 mi NNE 15.0 mph - 0.00 in Snow Light Snow
10:15 PM 28.4 °F 17.5 °F 28.4 °F 100% 30.36 in 2.5 mi NNE 13.8 mph - 0.00 in Snow Light Snow
10:41 PM 28.4 °F 18.5 °F 28.4 °F 100% 30.36 in 2.0 mi NNE 11.5 mph - 0.00 in Snow Light Snow
10:56 PM 28.0 °F 18.6 °F 28.0 °F 100% 30.42 in 3.0 mi North 10.4 mph - 0.00 in Snow Light Snow
11:08 PM 28.4 °F 18.5 °F 28.4 °F 100% 30.36 in 2.0 mi North 11.5 mph - 0.00 in Snow Light Snow
11:18 PM 28.4 °F 19.1 °F 28.4 °F 100% 30.36 in 1.8 mi North 10.4 mph - 0.00 in Snow Light Snow
11:30 PM 26.6 °F 15.7 °F 26.6 °F 100% 30.36 in 2.5 mi NNE 12.7 mph - 0.00 in Snow Light Snow
11:39 PM 26.6 °F 14.7 °F 26.6 °F 100% 30.36 in 4.0 mi NNE 15.0 mph - 0.00 in Snow Light Snow
11:48 PM 26.6 °F 16.8 °F 26.6 °F 100% 30.36 in 5.0 mi NNE 10.4 mph - 0.00 in Snow Light Snow
11:56 PM 27.1 °F 17.5 °F 27.1 °F 100% 30.42 in 9.0 mi North 10.4 mph - 0.00 in Snow Light Snow